User: anonymous
Location: Unspecified
(0.0000°N, 0.0000°E)
Time: 11:08:28
(UTC+02:00)
Language:

Meteor 1-10 Rocket - Orbit

View from above orbital plane
View from above orbital plane
View from above satellite
View from above satellite

Ground track
Ground track

The orbit data is extracted from the following two-line orbital elements,

1 05732U 71120B   14244.98272134 -.00000144  00000-0 -94917-4 0  3538
2 05732 081.2532 027.5980 0051648 030.1715 109.1095 14.05831474195728
Epoch (UTC): 01 September 2014 23:35:07
Eccentricity: 0.0051648
inclination: 81.2532°
perigee height: 836 km
apogee height: 911 km
right ascension of ascending node: 27.5980°
argument of perigee: 30.1715°
revolutions per day: 14.05831474
mean anomaly at epoch: 109.1095°
orbit number at epoch: 19572

The dashed part of the orbit path shows where the satellite is in the earth's shadow,  

DLR